Weather History for Luverne, MN

Change the Weather History Date:

Monday, March 11, 2013

  Actual Average (KFSD) Record (KFSD)
Temperature  
Mean Temperature 24 °F 31 °F  
Max Temperature 32 °F 41 °F 68 °F (1990)
Min Temperature 17 °F 21 °F -23 °F (1948)
Degree Days  
Heating Degree Days 40 34  
Month to date heating degree days 400  
Since 1 July heating degree days 6250  
Cooling Degree Days 0 0  
Month to date cooling degree days 0  
Year to date cooling degree days 0  
Moisture  
Dew Point 18 °F    
Average Humidity 73    
Maximum Humidity 86    
Minimum Humidity 60    
Precipitation  
Precipitation 0.00 in 0.04 in 0.96 in (1977)
Month to date precipitation 0.42  
Year to date precipitation 1.58  
Snow  
Snow 0.00 in 0.30 in 5.00 in (1975)
Month to date snowfall 3.4  
Since 1 July snowfall 34.9  
Snow Depth -    
Sea Level Pressure  
Sea Level Pressure 29.88 in    
Wind  
Wind Speed 12 mph (NNW)    
Max Wind Speed 16 mph    
Max Gust Speed 23 mph    
Visibility 10 miles    
Events      
T = Trace of Precipitation, MM = Missing Value Source: NWS Daily Summary

Daily Weather History Graph

Daily Weather History Graph

Search for Another Location

Airport:

Trip Planner

Search our weather history database for the weather conditions in past years. The results will help you decide how hot, cold, wet, or windy it might be!

Date:

Astronomy

Mar. 11, 2013 Rise Set
Actual Time 7:43 AM CDT 7:26 PM CDT
Civil Twilight 7:15 AM CDT 7:55 PM CDT
Nautical Twilight 6:41 AM CDT 8:28 PM CDT
Astronomical Twilight 6:08 AM CDT 9:02 PM CDT
Moon 7:17 AM CDT (3/11) 7:41 PM CDT (3/11)
Length of Visible Light 12h 40m
Length of Day
11h 42m
Waning Crescent, 0% of the Moon is Illuminated
Mar 11
Waning Crescent
Mar 11
New
Mar 19
First Quarter
Mar 27
Full
Apr 2
Last Quarter

Hourly Weather History & Observations

Time (CDT) Temp. Windchill Dew Point Humidity Pressure Visibility Wind Dir Wind Speed Gust Speed Precip Events Conditions
12:17 AM 23.0 °F 10.6 °F 17.6 °F 80% 29.94 in 10.0 mi North 13.8 mph 19.6 mph N/A   Overcast
12:37 AM 23.0 °F 10.1 °F 17.6 °F 80% 29.93 in 10.0 mi North 15.0 mph - N/A   Overcast
12:56 AM 21.2 °F 8.3 °F 17.6 °F 86% 29.92 in 10.0 mi North 13.8 mph 20.7 mph N/A   Overcast
1:17 AM 23.0 °F 10.1 °F 17.6 °F 80% 29.91 in 10.0 mi North 15.0 mph - N/A   Overcast
1:37 AM 23.0 °F 10.6 °F 17.6 °F 80% 29.91 in 10.0 mi North 13.8 mph 20.7 mph N/A   Overcast
1:57 AM 23.0 °F 10.6 °F 17.6 °F 80% 29.91 in 10.0 mi North 13.8 mph 19.6 mph N/A   Overcast
2:17 AM 23.0 °F 10.1 °F 17.6 °F 80% 29.91 in 10.0 mi North 15.0 mph - N/A   Overcast
2:36 AM 23.0 °F 11.1 °F 17.6 °F 80% 29.91 in 10.0 mi North 12.7 mph 20.7 mph N/A   Overcast
2:57 AM 23.0 °F 11.7 °F 17.6 °F 80% 29.92 in 10.0 mi North 11.5 mph 16.1 mph N/A   Overcast
3:17 AM 23.0 °F 11.1 °F 17.6 °F 80% 29.92 in 10.0 mi NNW 12.7 mph 17.3 mph N/A   Overcast
3:36 AM 23.0 °F 12.4 °F 17.6 °F 80% 29.91 in 10.0 mi NNW 10.4 mph - N/A   Overcast
3:57 AM 21.2 °F 10.1 °F 15.8 °F 80% 29.90 in 10.0 mi NNW 10.4 mph - N/A   Overcast
4:17 AM 21.2 °F 10.1 °F 17.6 °F 86% 29.89 in 10.0 mi North 10.4 mph - N/A   Overcast
4:36 AM 21.2 °F 10.9 °F 15.8 °F 80% 29.89 in 10.0 mi NNW 9.2 mph - N/A   Overcast
4:57 AM 21.2 °F 10.9 °F 15.8 °F 80% 29.89 in 10.0 mi NNW 9.2 mph - N/A   Overcast
5:17 AM 21.2 °F 9.5 °F 15.8 °F 80% 29.88 in 10.0 mi NNW 11.5 mph 16.1 mph N/A   Overcast
5:37 AM 21.2 °F 8.9 °F 15.8 °F 80% 29.88 in 10.0 mi NNW 12.7 mph - N/A   Overcast
5:57 AM 21.2 °F 8.3 °F 14.0 °F 74% 29.88 in 10.0 mi NNW 13.8 mph 17.3 mph N/A   Overcast
6:17 AM 19.4 °F 6.6 °F 14.0 °F 80% 29.87 in 10.0 mi NNW 12.7 mph - N/A   Overcast
6:37 AM 21.2 °F 10.9 °F 14.0 °F 74% 29.87 in 10.0 mi NNW 9.2 mph - N/A   Overcast
6:57 AM 19.4 °F 7.9 °F 14.0 °F 80% 29.88 in 10.0 mi NNW 10.4 mph - N/A   Overcast
7:17 AM 19.4 °F 8.6 °F 14.0 °F 80% 29.88 in 10.0 mi NW 9.2 mph - N/A   Overcast
7:37 AM 19.4 °F 8.6 °F 14.0 °F 80% 29.89 in 10.0 mi NW 9.2 mph - N/A   Overcast
7:57 AM 17.6 °F 5.7 °F 12.2 °F 79% 29.89 in 10.0 mi NW 10.4 mph 16.1 mph N/A   Scattered Clouds
8:16 AM 17.6 °F 6.4 °F 12.2 °F 79% 29.89 in 10.0 mi NW 9.2 mph - N/A   Clear
8:37 AM 17.6 °F 5.0 °F 12.2 °F 79% 29.89 in 10.0 mi NW 11.5 mph - N/A   Clear
8:57 AM 17.6 °F 5.7 °F 12.2 °F 79% 29.88 in 10.0 mi NNW 10.4 mph - N/A   Clear
9:16 AM 19.4 °F 7.2 °F 12.2 °F 74% 29.88 in 10.0 mi NNW 11.5 mph - N/A   Clear
9:37 AM 19.4 °F 9.5 °F 14.0 °F 80% 29.88 in 10.0 mi NNW 8.1 mph - N/A   Clear
9:57 AM 21.2 °F 10.9 °F 14.0 °F 74% 29.88 in 10.0 mi NNW 9.2 mph - N/A   Clear
10:16 AM 23.0 °F 13.1 °F 15.8 °F 74% 29.87 in 10.0 mi NNW 9.2 mph - N/A   Clear
10:37 AM 23.0 °F 13.1 °F 15.8 °F 74% 29.88 in 10.0 mi NNW 9.2 mph - N/A   Clear
10:56 AM 23.0 °F 12.4 °F 15.8 °F 74% 29.88 in 10.0 mi NW 10.4 mph - N/A   Clear
11:17 AM 23.0 °F 13.1 °F 15.8 °F 74% 29.87 in 10.0 mi NNW 9.2 mph - N/A   Clear
11:37 AM 24.8 °F 14.6 °F 17.6 °F 74% 29.87 in 10.0 mi NNW 10.4 mph - N/A   Clear
11:57 AM 26.6 °F 16.8 °F 17.6 °F 69% 29.86 in 10.0 mi North 10.4 mph - N/A   Clear
12:17 PM 26.6 °F 16.8 °F 17.6 °F 69% 29.86 in 10.0 mi NNW 10.4 mph - N/A   Scattered Clouds
12:37 PM 26.6 °F 16.8 °F 17.6 °F 69% 29.85 in 10.0 mi NNW 10.4 mph 16.1 mph N/A   Scattered Clouds
12:57 PM 26.6 °F 16.8 °F 17.6 °F 69% 29.85 in 10.0 mi NNW 10.4 mph - N/A   Mostly Cloudy
1:17 PM 28.4 °F 19.1 °F 19.4 °F 69% 29.85 in 10.0 mi NW 10.4 mph - N/A   Mostly Cloudy
1:37 PM 28.4 °F 19.7 °F 19.4 °F 69% 29.84 in 10.0 mi NW 9.2 mph - N/A   Scattered Clouds
1:57 PM 28.4 °F 19.1 °F 19.4 °F 69% 29.83 in 10.0 mi NW 10.4 mph 16.1 mph N/A   Scattered Clouds
2:17 PM 30.2 °F 19.3 °F 19.4 °F 64% 29.83 in 10.0 mi WNW 15.0 mph - N/A   Clear
2:37 PM 30.2 °F 20.2 °F 19.4 °F 64% 29.83 in 10.0 mi NW 12.7 mph - N/A   Clear
2:57 PM 30.2 °F 20.8 °F 19.4 °F 64% 29.83 in 10.0 mi WNW 11.5 mph 18.4 mph N/A   Clear
3:17 PM 30.2 °F 20.8 °F 21.2 °F 69% 29.83 in 10.0 mi NW 11.5 mph - N/A   Mostly Cloudy
3:36 PM 30.2 °F 21.9 °F 19.4 °F 64% 29.82 in 10.0 mi NW 9.2 mph - N/A   Overcast
3:57 PM 30.2 °F 21.9 °F 19.4 °F 64% 29.82 in 10.0 mi NNW 9.2 mph - N/A   Overcast
4:17 PM 30.2 °F 21.9 °F 19.4 °F 64% 29.82 in 10.0 mi NNW 9.2 mph - N/A   Overcast
4:36 PM 32.0 °F 24.2 °F 19.4 °F 60% 29.83 in 10.0 mi NNW 9.2 mph - N/A   Overcast
4:57 PM 32.0 °F 24.2 °F 19.4 °F 60% 29.83 in 10.0 mi NW 9.2 mph - N/A   Scattered Clouds
5:17 PM 32.0 °F 24.2 °F 19.4 °F 60% 29.82 in 10.0 mi NW 9.2 mph - N/A   Clear
5:37 PM 30.2 °F 21.9 °F 19.4 °F 64% 29.82 in 10.0 mi NNW 9.2 mph - N/A   Mostly Cloudy
6:16 PM 30.2 °F 21.3 °F 19.4 °F 64% 29.84 in 10.0 mi WNW 10.4 mph - N/A   Clear
6:37 PM 32.0 °F 23.0 °F 19.4 °F 60% 29.85 in 10.0 mi WNW 11.5 mph - N/A   Clear
6:57 PM 30.2 °F 21.3 °F 19.4 °F 64% 29.86 in 10.0 mi WNW 10.4 mph - N/A   Clear
7:16 PM 30.2 °F 21.3 °F 19.4 °F 64% 29.86 in 10.0 mi WNW 10.4 mph - N/A   Clear
7:37 PM 30.2 °F 24.3 °F 19.4 °F 64% 29.86 in 10.0 mi WNW 5.8 mph - N/A   Mostly Cloudy
7:56 PM 30.2 °F 24.3 °F 19.4 °F 64% 29.87 in 10.0 mi WNW 5.8 mph - N/A   Mostly Cloudy
8:17 PM 30.2 °F 20.8 °F 19.4 °F 64% 29.88 in 10.0 mi WNW 11.5 mph - N/A   Scattered Clouds
8:37 PM 28.4 °F 20.4 °F 21.2 °F 74% 29.89 in 10.0 mi WNW 8.1 mph - N/A   Scattered Clouds
8:56 PM 28.4 °F 20.4 °F 21.2 °F 74% 29.89 in 10.0 mi NW 8.1 mph - N/A   Clear
9:17 PM 28.4 °F 19.1 °F 19.4 °F 69% 29.90 in 10.0 mi NW 10.4 mph - N/A   Clear
9:37 PM 28.4 °F 17.5 °F 19.4 °F 69% 29.90 in 10.0 mi NNW 13.8 mph 19.6 mph N/A   Scattered Clouds
9:56 PM 30.2 °F 20.8 °F 21.2 °F 69% 29.91 in 10.0 mi NNW 11.5 mph - N/A   Overcast
10:17 PM 30.2 °F 18.9 °F 21.2 °F 69% 29.92 in 10.0 mi NNW 16.1 mph 23.0 mph N/A   Overcast
10:37 PM 30.2 °F 20.8 °F 23.0 °F 75% 29.92 in 10.0 mi NNW 11.5 mph 18.4 mph N/A   Overcast
10:56 PM 30.2 °F 19.8 °F 21.2 °F 69% 29.92 in 10.0 mi North 13.8 mph - N/A   Overcast
11:17 PM 30.2 °F 21.3 °F 23.0 °F 75% 29.91 in 10.0 mi North 10.4 mph - N/A   Overcast
11:37 PM 30.2 °F 23.4 °F 23.0 °F 75% 29.92 in 10.0 mi NNW 6.9 mph - N/A   Overcast
11:56 PM 30.2 °F 22.6 °F 23.0 °F 75% 29.92 in 10.0 mi WNW 8.1 mph - N/A   Scattered Clouds